OM6ACB-6 Weather Reports


Display with metric or nautical units.
time (UTC)temp
F
wind
direction
speed
MPH
gust
MPH
rain 1hr
in
rain 24hr
in
rain mn
in
humidity
%
barometer
mb
20260508012640 49 270 0.0 0.0 0.00 0.00 0.00 58 1016.9
20260508011640 50 225 0.0 1.0 0.00 0.00 0.00 60 1016.8
20260508010639 50 0 0.0 0.0 0.00 0.00 0.00 62 1016.8
20260508005639 49 225 0.0 1.0 0.00 0.00 0.00 62 1016.8
20260508004639 50 225 0.0 1.0 0.00 0.00 0.00 61 1016.8
20260508003638 50 0 0.0 0.0 0.00 0.00 0.00 60 1016.9
20260508002638 51 0 0.0 0.0 0.00 0.00 0.00 60 1016.8
20260508001638 50 0 0.0 0.0 0.00 0.00 0.00 59 1016.8
20260508000638 50 0 0.0 0.0 0.00 0.00 0.00 61 1016.7
20260507235637 50 0 0.0 0.0 0.00 0.00 0.00 62 1016.7
20260507234637 50 0 0.0 0.0 0.00 0.00 0.00 62 1016.8
20260507233637 50 0 0.0 0.0 0.00 0.00 0.00 63 1016.8
20260507232636 50 0 0.0 0.0 0.00 0.00 0.00 62 1016.9
20260507231636 49 0 0.0 0.0 0.00 0.00 0.00 61 1016.9
20260507230636 49 0 0.0 0.0 0.00 0.00 0.00 59 1016.9
20260507225636 51 0 0.0 0.0 0.00 0.00 0.00 56 1017.2
20260507224635 51 0 0.0 0.0 0.00 0.00 0.00 55 1017.3
20260507223635 52 0 0.0 0.0 0.00 0.00 0.00 53 1017.3
20260507222635 52 0 0.0 0.0 0.00 0.00 0.00 54 1017.3
20260507221634 52 0 0.0 0.0 0.00 0.00 0.00 54 1017.2
20260507220634 51 0 0.0 0.0 0.00 0.00 0.00 53 1017.1
20260507215634 51 0 0.0 0.0 0.00 0.00 0.00 59 1017.1
20260507214633 52 90 0.0 0.0 0.00 0.00 0.00 60 1017.0
20260507213633 52 0 0.0 0.0 0.00 0.00 0.00 60 1017.0
20260507212633 52 0 0.0 0.0 0.00 0.00 0.00 59 1017.0
20260507211633 52 0 0.0 0.0 0.00 0.00 0.00 56 1017.1
20260507210632 52 0 0.0 0.0 0.00 0.00 0.00 56 1016.9
20260507205632 51 0 0.0 0.0 0.00 0.00 0.00 53 1016.8
20260507204632 52 0 0.0 0.0 0.00 0.00 0.00 51 1016.9
20260507203631 52 0 0.0 0.0 0.00 0.00 0.00 49 1016.8
20260507202631 53 0 0.0 0.0 0.00 0.00 0.00 47 1016.9
20260507201631 53 0 0.0 0.0 0.00 0.00 0.00 46 1016.9
20260507200631 53 0 0.0 0.0 0.00 0.00 0.00 45 1016.8
20260507195631 53 0 0.0 0.0 0.00 0.00 0.00 44 1016.7
20260507194630 53 0 0.0 0.0 0.00 0.00 0.00 43 1016.7
20260507193630 53 0 0.0 0.0 0.00 0.00 0.00 40 1016.7
20260507192629 54 0 0.0 0.0 0.00 0.00 0.00 39 1016.6
20260507191629 54 0 0.0 0.0 0.00 0.00 0.00 37 1016.5
20260507190629 54 90 0.0 1.0 0.00 0.00 0.00 33 1016.6
20260507185628 54 90 0.0 0.0 0.00 0.00 0.00 32 1016.4
20260507184628 54 90 0.0 1.0 0.00 0.00 0.00 32 1016.3
20260507183628 55 90 0.0 1.0 0.00 0.00 0.00 29 1016.2
20260507182628 55 0 0.0 0.0 0.00 0.00 0.00 28 1016.2
20260507181627 55 0 0.0 0.0 0.00 0.00 0.00 27 1016.2
20260507180627 55 90 2.0 4.0 0.00 0.00 0.00 26 1016.1
20260507175627 56 88 4.0 4.0 0.00 0.00 0.00 26 1016.0
20260507174626 56 56 2.0 3.0 0.00 0.00 0.00 27 1016.0
20260507173626 56 92 2.0 4.0 0.00 0.00 0.00 28 1016.0
20260507172626 56 101 2.0 4.0 0.00 0.00 0.00 27 1015.9
20260507171626 56 15 4.0 6.0 0.00 0.00 0.00 27 1015.9
20260507170625 57 40 3.0 4.0 0.00 0.00 0.00 26 1015.9
20260507165627 58 49 3.0 4.0 0.00 0.00 0.00 25 1016.0
20260507164625 63 79 2.0 4.0 0.00 0.00 0.00 24 1016.3
20260507163624 59 68 1.0 4.0 0.00 0.00 0.00 25 1016.0
20260507162624 58 45 0.0 4.0 0.00 0.00 0.00 25 1015.8
20260507161624 58 135 0.0 2.0 0.00 0.00 0.00 25 1015.7
20260507160624 58 115 1.0 4.0 0.00 0.00 0.00 25 1015.7
20260507155623 57 95 3.0 5.0 0.00 0.00 0.00 25 1015.6
20260507154623 58 106 2.0 4.0 0.00 0.00 0.00 25 1015.6
20260507153623 58 116 4.0 6.0 0.00 0.00 0.00 25 1015.7
20260507152622 60 185 2.0 5.0 0.00 0.00 0.00 25 1015.9
20260507151622 63 247 3.0 6.0 0.00 0.00 0.00 24 1015.9
20260507150622 64 204 3.0 4.0 0.00 0.00 0.00 24 1015.9
20260507145621 66 242 1.0 3.0 0.00 0.00 0.00 23 1016.1
20260507144621 66 261 5.0 8.0 0.00 0.00 0.00 23 1016.0
20260507143621 65 222 3.0 5.0 0.00 0.00 0.00 23 1016.0
20260507142621 65 238 3.0 5.0 0.00 0.00 0.00 23 1015.9
20260507141620 64 250 4.0 7.0 0.00 0.00 0.00 24 1015.9
20260507140620 64 237 4.0 8.0 0.00 0.00 0.00 24 1015.9
20260507135620 65 252 4.0 6.0 0.00 0.00 0.00 23 1016.1
20260507134619 65 225 3.0 5.0 0.00 0.00 0.00 23 1016.1
20260507133619 66 253 2.0 4.0 0.00 0.00 0.00 23 1016.1
20260507132619 66 244 3.0 5.0 0.00 0.00 0.00 23 1016.2
20260507131619 66 215 4.0 6.0 0.00 0.00 0.00 23 1016.2
20260507130618 65 246 3.0 4.0 0.00 0.00 0.00 23 1016.2
20260507125618 66 238 3.0 4.0 0.00 0.00 0.00 23 1016.3
20260507124618 66 194 3.0 4.0 0.00 0.00 0.00 23 1016.5
20260507123617 65 228 3.0 4.0 0.00 0.00 0.00 23 1016.3
20260507122617 63 230 2.0 4.0 0.00 0.00 0.00 24 1016.1
20260507121617 60 243 4.0 6.0 0.00 0.00 0.00 25 1016.0
20260507120616 61 262 4.0 6.0 0.00 0.00 0.00 24 1016.0
20260507115616 61 214 4.0 5.0 0.00 0.00 0.00 24 1016.0
20260507114616 63 239 5.0 6.0 0.00 0.00 0.00 24 1015.9
20260507113616 67 238 3.0 10.0 0.00 0.00 0.00 23 1016.2
20260507112615 67 296 1.0 4.0 0.00 0.00 0.00 23 1016.2
20260507111615 66 286 3.0 4.0 0.00 0.00 0.00 23 1016.1
20260507110615 67 228 2.0 7.0 0.00 0.00 0.00 23 1016.1
20260507105614 67 243 3.0 5.0 0.00 0.00 0.00 23 1015.9
20260507104614 68 247 3.0 6.0 0.00 0.00 0.00 23 1016.1
20260507103614 67 247 3.0 7.0 0.00 0.00 0.00 23 1016.0
20260507102614 69 252 4.0 8.0 0.00 0.00 0.00 22 1016.1
20260507101613 70 263 4.0 7.0 0.00 0.00 0.00 22 1016.3
20260507100613 70 267 2.0 5.0 0.00 0.00 0.00 22 1016.2
20260507095613 70 259 3.0 4.0 0.00 0.00 0.00 22 1016.2
20260507094612 67 247 6.0 9.0 0.00 0.00 0.00 23 1015.9
20260507093612 65 240 3.0 9.0 0.00 0.00 0.00 23 1015.9
20260507092612 69 268 4.0 5.0 0.00 0.00 0.00 22 1015.9
20260507091612 66 216 4.0 7.0 0.00 0.00 0.00 23 1015.7
20260507090611 67 243 4.0 7.0 0.00 0.00 0.00 23 1015.7
20260507085611 67 246 3.0 4.0 0.00 0.00 0.00 23 1015.7
20260507084611 67 108 2.0 4.0 0.00 0.00 0.00 23 1015.7
20260507083610 66 244 2.0 4.0 0.00 0.00 0.00 23 1015.5
20260507082610 66 232 5.0 8.0 0.00 0.00 0.00 23 1015.5
20260507081610 68 240 4.0 6.0 0.00 0.00 0.00 23 1015.5
20260507080609 66 222 3.0 6.0 0.00 0.00 0.00 23 1015.3
20260507075609 65 288 1.0 4.0 0.00 0.00 0.00 23 1015.2
20260507074609 64 246 3.0 8.0 0.00 0.00 0.00 24 1015.1
20260507073609 64 234 2.0 8.0 0.00 0.00 0.00 24 1015.0
20260507072608 67 253 2.0 4.0 0.00 0.00 0.00 23 1014.9
20260507071608 65 211 1.0 2.0 0.00 0.00 0.00 23 1014.8
20260507070608 65 252 2.0 5.0 0.00 0.00 0.00 23 1014.7
20260507065607 64 280 2.0 4.0 0.00 0.00 0.00 24 1014.6
20260507064607 63 259 2.0 3.0 0.00 0.00 0.00 24 1014.5
20260507063607 64 262 4.0 5.0 0.00 0.00 0.00 24 1014.6
20260507062607 63 270 2.0 5.0 0.00 0.00 0.00 24 1014.4
20260507061606 63 258 2.0 5.0 0.00 0.00 0.00 24 1014.4
20260507060606 62 270 2.0 5.0 0.00 0.00 0.00 24 1014.3
20260507055606 63 298 4.0 5.0 0.00 0.00 0.00 24 1014.2
20260507054605 64 246 2.0 5.0 0.00 0.00 0.00 24 1014.3
20260507053605 62 265 2.0 4.0 0.00 0.00 0.00 24 1014.0
20260507052605 63 0 0.0 0.0 0.00 0.00 0.00 24 1013.9
20260507051605 60 0 0.0 0.0 0.00 0.00 0.00 25 1013.6
20260507050604 60 0 0.0 0.0 0.00 0.00 0.00 25 1013.5
20260507045604 60 314 0.0 1.0 0.00 0.00 0.00 25 1013.5
20260507044608 60 281 1.0 4.0 0.00 0.00 0.00 25 1013.4
20260507043603 60 313 2.0 3.0 0.00 0.00 0.00 25 1013.4
20260507042603 59 327 3.0 5.0 0.00 0.00 0.00 25 1013.3
20260507041603 -25 1 3.0 3.0 0.00 0.00 0.00 13 946.3
20260507040603 -25 1 3.0 3.0 0.00 0.00 0.00 13 946.3
20260507035602 -25 1 3.0 3.0 0.00 0.00 0.00 13 946.2
20260507034602 -25 1 3.0 3.0 0.00 0.00 0.00 13 946.1
20260507033602 -25 1 3.0 3.0 0.00 0.00 0.00 13 946.0
20260507032601 59 1 3.0 3.0 0.00 0.00 0.00 25 1012.9
20260507031601 59 1 3.0 3.0 0.00 0.00 0.00 25 1012.9
20260507030601 59 1 3.0 3.0 0.00 0.00 0.00 25 1012.8
20260507025600 59 1 3.0 3.0 0.00 0.00 0.00 25 1012.8
20260507024600 59 1 3.0 3.0 0.00 0.00 0.00 25 1012.9
20260507023600 59 1 3.0 3.0 0.00 0.00 0.00 25 1012.9
20260507022600 59 1 3.0 3.0 0.00 0.00 0.00 25 1013.0
20260507021559 59 1 3.0 3.0 0.00 0.00 0.00 25 1013.0
20260507020559 59 1 3.0 3.0 0.00 0.00 0.00 25 1012.9
20260507015559 59 351 3.0 4.0 0.00 0.00 0.00 25 1012.8
20260507014558 59 315 2.0 2.0 0.00 0.00 0.00 25 1012.5
20260507013558 58 315 2.0 2.0 0.00 0.00 0.00 25 1012.4